This is the latest recevied weather packets stored in our database for station/object N4ZIQ. If no packets are shown the sender has not sent any weather packets the latest 10 day(s).
| Time | Temp. | Humidity | Pressure | Rain* | Wind** | Luminosity | Snow |
|---|---|---|---|---|---|---|---|
| 1778178048 | 32.78° C | 51% | 1015 hPa | 0 mm | - | 847 W/m² | - |
| 1778177749 | 32.78° C | 51% | 1015.2 hPa | 0 mm | - | 870 W/m² | - |
| 1778177447 | 32.78° C | 50% | 1015.3 hPa | 0 mm | - | 847 W/m² | - |
| 1778177147 | 32.78° C | 50% | 1015.3 hPa | 0 mm | - | 854 W/m² | - |
| 1778176859 | 32.78° C | 51% | 1015.4 hPa | 0 mm | - | 858 W/m² | - |
| 1778176545 | 32.78° C | 51% | 1015.5 hPa | 0 mm | - | 860 W/m² | - |
| 1778176246 | 32.78° C | 51% | 1015.5 hPa | 0 mm | - | 867 W/m² | - |
| 1778175957 | 32.78° C | 51% | 1015.4 hPa | 0 mm | - | 872 W/m² | - |
| 1778175646 | 32.22° C | 51% | 1015.6 hPa | 0 mm | - | 874 W/m² | - |
| 1778175345 | 32.22° C | 51% | 1015.7 hPa | 0 mm | - | 875 W/m² | - |
| 1778175054 | 32.78° C | 51% | 1015.6 hPa | 0 mm | - | 877 W/m² | - |
| 1778174747 | 32.22° C | 50% | 1015.5 hPa | 0 mm | - | 879 W/m² | - |
| 1778174447 | 32.22° C | 51% | 1015.6 hPa | 0 mm | - | 882 W/m² | - |
| 1778174155 | 31.67° C | 51% | 1015.6 hPa | 0 mm | - | 881 W/m² | - |
| 1778173848 | 31.67° C | 51% | 1015.6 hPa | 0 mm | - | 882 W/m² | - |
| 1778173544 | 32.22° C | 50% | 1015.6 hPa | 0 mm | - | 877 W/m² | - |
| 1778173252 | 31.67° C | 50% | 1015.6 hPa | 0 mm | - | 882 W/m² | - |
| 1778172949 | 32.22° C | 49% | 1015.6 hPa | 0 mm | - | 877 W/m² | - |
| 1778172648 | 31.67° C | 51% | 1015.8 hPa | 0 mm | - | 875 W/m² | - |
| 1778172354 | 31.67° C | 53% | 1015.7 hPa | 0 mm | - | 872 W/m² | - |
| 1778172047 | 31.67° C | 51% | 1015.8 hPa | 0 mm | - | 868 W/m² | - |
| 1778171747 | 31.67° C | 51% | 1015.9 hPa | 0 mm | - | 865 W/m² | - |
| 1778171450 | 31.11° C | 52% | 1015.8 hPa | 0 mm | - | 863 W/m² | - |
| 1778171147 | 31.11° C | 54% | 1015.9 hPa | 0 mm | - | 854 W/m² | - |
| 1778170846 | 31.11° C | 56% | 1015.9 hPa | 0 mm | - | 853 W/m² | - |
* Rain latest hour (hover to see other rain measurements)
** Current wind speed in m/s (hover to see current wind gust speed)